Hourly Weather Chahivs'ke

Today, 23 June, Wednesday

Time Temperature Precipitation Wind Pressure Humidity
00:00 +21°C° 0.2 mm 2 mps 737 mmHg 90%
01:00 +20°C° 0.2 mm 2 mps 737 mmHg 90%
02:00 +20°C° 0.2 mm 2 mps 736 mmHg 90%
03:00 +20°C° 0 mm 2 mps 737 mmHg 89%
04:00 +20°C° 0 mm 2 mps 737 mmHg 88%
05:00 +19°C° 0 mm 2 mps 737 mmHg 86%
06:00 +21°C° 0 mm 3 mps 737 mmHg 83%
07:00 +24°C° 0 mm 3 mps 737 mmHg 80%
08:00 +25°C° 0 mm 4 mps 737 mmHg 76%
09:00 +26°C° 0 mm 4 mps 737 mmHg 73%
10:00 +28°C° 0 mm 4 mps 737 mmHg 69%
11:00 +29°C° 0 mm 4 mps 737 mmHg 66%
12:00 +29°C° 0 mm 4 mps 737 mmHg 65%
13:00 +29°C° 0 mm 4 mps 737 mmHg 64%
14:00 +30°C° 0 mm 4 mps 737 mmHg 64%
15:00 +30°C° 0 mm 3 mps 737 mmHg 66%
16:00 +29°C° 0 mm 3 mps 737 mmHg 69%
17:00 +29°C° 0 mm 3 mps 738 mmHg 72%
18:00 +28°C° 0.1 mm 3 mps 738 mmHg 76%
19:00 +26°C° 0.1 mm 2 mps 738 mmHg 81%
20:00 +25°C° 0.1 mm 2 mps 738 mmHg 86%
21:00 +24°C° 0 mm 2 mps 738 mmHg 87%
22:00 +24°C° 0 mm 2 mps 738 mmHg 89%
23:00 +23°C° 0 mm 2 mps 738 mmHg 90%

Tomorrow, 24 June, Thursday

Time Temperature Precipitation Wind Pressure Humidity
00:00 +23°C° 0 mm 1 mps 738 mmHg 90%
01:00 +22°C° 0 mm 1 mps 738 mmHg 90%
02:00 +22°C° 0 mm 1 mps 738 mmHg 90%
03:00 +22°C° 0 mm 1 mps 738 mmHg 90%
04:00 +22°C° 0 mm 1 mps 739 mmHg 90%
05:00 +22°C° 0 mm 1 mps 739 mmHg 90%
06:00 +24°C° 0 mm 2 mps 739 mmHg 85%
07:00 +25°C° 0 mm 2 mps 739 mmHg 80%
08:00 +27°C° 0 mm 2 mps 739 mmHg 75%
09:00 +28°C° 0 mm 2 mps 739 mmHg 71%
10:00 +29°C° 0 mm 2 mps 739 mmHg 67%
11:00 +30°C° 0 mm 2 mps 739 mmHg 63%
12:00 +31°C° 0 mm 2 mps 739 mmHg 60%
13:00 +31°C° 0 mm 2 mps 739 mmHg 58%
14:00 +32°C° 0 mm 2 mps 739 mmHg 55%
15:00 +32°C° 0 mm 2 mps 739 mmHg 57%
16:00 +32°C° 0 mm 2 mps 739 mmHg 59%
17:00 +32°C° 0 mm 2 mps 739 mmHg 60%
18:00 +30°C° 0.1 mm 1 mps 739 mmHg 66%
19:00 +28°C° 0.1 mm 1 mps 739 mmHg 72%
20:00 +27°C° 0.1 mm 1 mps 739 mmHg 78%
21:00 +26°C° 0.1 mm 1 mps 738 mmHg 81%
22:00 +25°C° 0.1 mm 1 mps 738 mmHg 85%
23:00 +24°C° 0.1 mm 1 mps 738 mmHg 88%

Day after tomorrow, 25 June, Friday

Time Temperature Precipitation Wind Pressure Humidity
00:00 +23°C° 0 mm 1 mps 738 mmHg 88%
01:00 +23°C° 0 mm 1 mps 738 mmHg 88%
02:00 +23°C° 0 mm 1 mps 738 mmHg 89%
03:00 +22°C° 0 mm 1 mps 738 mmHg 89%
04:00 +22°C° 0 mm 1 mps 738 mmHg 89%
05:00 +22°C° 0 mm 1 mps 738 mmHg 89%
06:00 +24°C° 0 mm 2 mps 738 mmHg 84%
07:00 +25°C° 0 mm 2 mps 738 mmHg 79%
08:00 +27°C° 0 mm 2 mps 738 mmHg 74%
09:00 +28°C° 0 mm 2 mps 738 mmHg 70%
10:00 +29°C° 0 mm 2 mps 738 mmHg 66%
11:00 +30°C° 0 mm 2 mps 738 mmHg 62%
12:00 +30°C° 0 mm 2 mps 738 mmHg 58%
13:00 +31°C° 0 mm 2 mps 738 mmHg 54%
14:00 +31°C° 0 mm 2 mps 738 mmHg 51%
15:00 +31°C° 0 mm 2 mps 738 mmHg 54%
16:00 +31°C° 0 mm 2 mps 737 mmHg 57%
17:00 +31°C° 0 mm 2 mps 737 mmHg 60%
18:00 +29°C° 0 mm 2 mps 737 mmHg 66%
19:00 +27°C° 0 mm 2 mps 737 mmHg 72%
20:00 +25°C° 0 mm 2 mps 736 mmHg 77%
21:00 +25°C° 0.3 mm 1 mps 736 mmHg 78%
22:00 +24°C° 0.3 mm 1 mps 736 mmHg 79%
23:00 +21°C° 0.3 mm 0 mps 736 mmHg 81%

26 June, Saturday

Time Temperature Precipitation Wind Pressure Humidity
00:00 +23°C° 0.2 mm 1 mps 736 mmHg 82%
01:00 +22°C° 0.2 mm 1 mps 736 mmHg 83%
02:00 +22°C° 0.2 mm 1 mps 736 mmHg 84%
03:00 +22°C° 0 mm 1 mps 736 mmHg 85%
04:00 +21°C° 0 mm 2 mps 736 mmHg 86%
05:00 +21°C° 0 mm 2 mps 736 mmHg 87%
06:00 +24°C° 0 mm 2 mps 736 mmHg 83%
07:00 +25°C° 0 mm 2 mps 736 mmHg 80%
08:00 +27°C° 0 mm 2 mps 736 mmHg 77%
09:00 +28°C° 0.7 mm 2 mps 736 mmHg 73%
10:00 +29°C° 0.7 mm 2 mps 736 mmHg 70%
11:00 +30°C° 0.7 mm 2 mps 736 mmHg 67%
12:00 +30°C° 0.7 mm 2 mps 736 mmHg 65%
13:00 +30°C° 0.7 mm 2 mps 736 mmHg 64%
14:00 +30°C° 0.7 mm 2 mps 736 mmHg 62%
15:00 +28°C° 0.6 mm 2 mps 736 mmHg 70%
16:00 +26°C° 0.6 mm 3 mps 736 mmHg 78%
17:00 +23°C° 0.6 mm 4 mps 735 mmHg 85%
18:00 +22°C° 0.6 mm 4 mps 735 mmHg 88%
19:00 +21°C° 0.6 mm 5 mps 736 mmHg 91%
20:00 +20°C° 0.6 mm 6 mps 736 mmHg 94%
21:00 +19°C° 0.1 mm 4 mps 736 mmHg 94%
22:00 +19°C° 0.1 mm 3 mps 736 mmHg 95%
23:00 +18°C° 0.1 mm 2 mps 736 mmHg 95%

27 June, Sunday

Time Temperature Precipitation Wind Pressure Humidity
00:00 +18°C° 0 mm 2 mps 736 mmHg 96%
01:00 +18°C° 0 mm 3 mps 736 mmHg 97%
02:00 +17°C° 0 mm 3 mps 736 mmHg 97%
03:00 +17°C° 0 mm 3 mps 736 mmHg 97%
04:00 +17°C° 0 mm 3 mps 736 mmHg 97%
05:00 +17°C° 0 mm 3 mps 736 mmHg 98%
06:00 +18°C° 0 mm 4 mps 737 mmHg 94%
07:00 +19°C° 0 mm 4 mps 737 mmHg 90%
08:00 +20°C° 0 mm 5 mps 737 mmHg 85%
09:00 +21°C° 0 mm 5 mps 737 mmHg 82%
10:00 +22°C° 0 mm 5 mps 737 mmHg 78%
11:00 +23°C° 0 mm 5 mps 738 mmHg 74%
12:00 +25°C° 0 mm 5 mps 738 mmHg 73%
13:00 +25°C° 0 mm 5 mps 738 mmHg 73%
14:00 +25°C° 0 mm 5 mps 737 mmHg 72%
15:00 +25°C° 0 mm 5 mps 737 mmHg 73%
16:00 +25°C° 0 mm 5 mps 737 mmHg 75%
17:00 +25°C° 0 mm 5 mps 737 mmHg 76%
18:00 +22°C° 0 mm 4 mps 737 mmHg 80%
19:00 +21°C° 0 mm 3 mps 737 mmHg 84%
20:00 +20°C° 0 mm 3 mps 737 mmHg 87%
21:00 +19°C° 0 mm 3 mps 737 mmHg 88%
22:00 +19°C° 0 mm 3 mps 738 mmHg 88%
23:00 +18°C° 0 mm 3 mps 738 mmHg 88%

28 June, Monday

Time Temperature Precipitation Wind Pressure Humidity
00:00 +18°C° 0 mm 3 mps 738 mmHg 89%
01:00 +17°C° 0 mm 3 mps 738 mmHg 90%
02:00 +17°C° 0 mm 3 mps 738 mmHg 91%
03:00 +17°C° 0 mm 3 mps 738 mmHg 91%
04:00 +16°C° 0 mm 3 mps 738 mmHg 92%
05:00 +16°C° 0 mm 3 mps 738 mmHg 92%
06:00 +18°C° 0 mm 3 mps 738 mmHg 87%
07:00 +19°C° 0 mm 4 mps 739 mmHg 82%
08:00 +21°C° 0 mm 4 mps 739 mmHg 77%
09:00 +22°C° 0 mm 4 mps 739 mmHg 73%
10:00 +23°C° 0 mm 4 mps 739 mmHg 68%
11:00 +25°C° 0 mm 4 mps 739 mmHg 63%
12:00 +25°C° 0 mm 4 mps 739 mmHg 62%
13:00 +26°C° 0 mm 4 mps 739 mmHg 60%
14:00 +26°C° 0 mm 4 mps 739 mmHg 58%
15:00 +26°C° 0 mm 4 mps 739 mmHg 62%
16:00 +25°C° 0 mm 3 mps 739 mmHg 66%
17:00 +25°C° 0 mm 3 mps 738 mmHg 69%
18:00 +22°C° 0 mm 3 mps 738 mmHg 74%
19:00 +21°C° 0 mm 3 mps 738 mmHg 79%
20:00 +20°C° 0 mm 3 mps 738 mmHg 83%
21:00 +19°C° 0 mm 3 mps 738 mmHg 85%
22:00 +18°C° 0 mm 3 mps 738 mmHg 87%
23:00 +18°C° 0 mm 2 mps 738 mmHg 89%
Show more

We Need Your Consent

Meteoprog and our Service Providers may store and access personal data such as cookies, device identifiers or other similar technologies on your device and process such data to personalise content and ads, as well as provide social media features and to analyse the traffic.

  • Store and/or access information on your device

    Cookies, device identifiers or other information can be stored or accessed on your device for the purposes indicated above.

  • Personalised ads and content, ad and content measurement, audience insights, and products development

    Ads and content can be personalised based on a profile. More data can be added to better personalise ads and content. Ad and content performance can be measured. Insights about the audience who saw the ads and content can be derived. Such data can be used to develop or improve user’s experience, systems and software.

By clicking ‘I Agree’ you will allow the use of indicated cookies, device identifiers, web beacons or other similar technologies. Your settings can be changed in the browser on your device.

For certain purposes, legitimate interests may be relied on, rather than consent. You can read more about this in our Privacy and Cookie Policy.